Showing default

COSMOS 2338, 24726

Orbit data source: Space-Track

COSMOS 2338, 24726 is a payload satellite owned by VKS (CIS) in LEO that was launched on Fri, 14 Feb 1997 UTC via a TSIKLON-3 launch vehicle from the Plesetsk Missile And Space Complex (PKMTR). Payload-class satellites include a variety of spacecraft equipped with specific instruments for various scientific and technological missions. These include communications satellites like Starlink; space stations such as the ISS; scientific satellites like the Hubble; Earth observation satellites from companies like Planet Labs, Umbra, and HawkEye 360; GPS; miniature CubeSats for education and research; and military/defense satellites.

Loading next visibility...
Identifier
24726, 1997-006B
Orbit
LEO
Country
Flag of CISCIS
Related business
Manufacturer
NPO PM
Mission
Non-operational Defense Communications
Bus & Motor
STRELA-3, Unknown motor
Mass
225 kg wet, 225 kg dry
Launch date (UTC)
1997-02-14 (29 years ago)
Launch vehicle
TSIKLON-3
Launch site
Plesetsk Missile And Space Complex (PKMTR)
Object type
Payload
Rocket body
Debris
Shape & HBR
Cyl + 1 Ant, 3.5 m
Radar Cross Section
1.583 m², Medium (>0.1 m² and < 1m²)

Expand to show TLE details & history
Last TLE update: 1 day ago

TLE from 1 day ago
0 COSMOS 2338
1 24726U 97006B   25260.00681955  .00000038  00000-0  15365-3 0  9996
2 24726  82.5953  77.1549 0004964 359.3986   0.7098 12.61386697316030
Epoch: 2025-09-17T00:09Z
TLE epoch observation values (Epoch: 2025-09-17T00:09:49.209Z)
Latitude
0.00002°
Longitude
78.51091°
Altitude
1,416.085 km
Speed
7.154 km/s
True Right ascension
05h 08m 37s
True Declination
0° 00' 00"
Sunlit
Object was in daylight at epoch
Visualization orbit readout
Latitude
Unknown
Longitude
Unknown
Altitude
Unknown
Speed
Unknown
Apparent Right ascension
Unknown
Apparent Declination
Unknown
Sunlit
N/A
Visualization observer readout
Local Sidereal Time
16:51:54
Azimuth
Unknown
Elevation
Unknown
Doppler factor
Unknown
Orbital elements
Apogee altitude
1,418.416 km
Perigee altitude
1,410.679 km
Semi-major axis
7,792.684 km
Eccentricity
0.0005
Inclination
82.5953°
RAAN
77.1549°
Arg. of periapsis
359.3986°
True anomaly
0.71051°
Mean anomaly
0.7098°
Eccentric anomaly
0.71015°
Mean motion
3.1551 °/min
Orbital period
114.1 mins
BSTAR
0.00015365
Loading maneuver chart data...
Computing Atmospheric mass density...
Loading historical data...
Loading historical data...
Loading historical data...
Loading historical data...
Loading historical data...
Loading historical data...
Loading historical data...

Documentation

Showing up to 5 results
|